Zurück zum Katalog

COSMOS 2250

AktivMilitärPO
NORAD 22651·PAYLOAD·🇷🇺 Russia

Gestartet May 11, 1993 von Plesetsk Cosmodrome

Loading…

Nächste Überflüge (nächste 24 Stunden)

TLE

AktuellSource: Space-Track

Epoche: Sep 14, 2026, 12:34 UTC

1 22651U 93030F   26257.52427146  .00000000  00000-0 -60234-4 0  9994
2 22651  82.5781 264.1953 0010784  86.2090  82.7779 12.63099879537294

Verfolge COSMOS 2250 in Echtzeit mit AllMySat

Download on the App Store